Location: Unspecified
(0.0000°N, 0.0000°E)
Time: 19:42:25
(UTC+00:00)

A-11 Canister half - Visible Passes

Search period start: 30 June 2015 00:00
Search period end: 10 July 2015 00:00
Orbit: 1516 x 1684 km, 47.2° (Epoch: 29 June)

Date Brightness Start Highest point End Pass type
(mag) Time Alt. Az. Time Alt. Az. Time Alt. Az.
30 Jun 11.2 04:58:08 10° N 05:04:51 23° NE 05:11:58 10° E visible
30 Jun 10.6 19:52:17 10° WSW 20:01:15 34° NW 20:09:52 10° NNE visible
01 Jul 11.3 04:35:35 10° N 04:41:54 21° NE 04:48:38 10° E visible
01 Jul 10.5 19:29:05 10° WSW 19:38:17 37° NW 19:47:11 10° NNE visible
02 Jul 11.3 04:13:06 10° N 04:18:56 19° NE 04:25:16 10° E visible
02 Jul 10.5 19:05:56 10° WSW 19:15:19 40° NW 19:24:27 10° NNE visible
03 Jul 11.3 03:50:40 10° N 03:55:58 17° NE 04:01:48 10° E visible
03 Jul 10.4 18:42:50 10° WSW 18:52:21 44° NW 19:01:42 10° NNE visible
04 Jul 11.3 03:28:19 10° NNE 03:32:58 15° NE 03:38:15 10° E visible
04 Jul 9.1 05:29:04 10° NW 05:38:22 85° NE 05:47:40 10° SE visible
04 Jul 10.3 18:19:44 10° WSW 18:29:24 48° NW 18:38:56 10° NNE visible
05 Jul 11.4 03:06:04 10° NNE 03:09:58 14° NE 03:14:34 10° ENE visible
05 Jul 9.1 05:06:12 10° NW 05:15:29 79° NE 05:24:45 10° SE visible
06 Jul 11.4 02:44:01 10° NNE 02:46:57 12° NE 02:50:41 10° ENE visible
06 Jul 9.2 04:43:21 10° NNW 04:52:36 73° NE 05:01:50 10° SE visible
07 Jul 11.4 02:22:26 10° NNE 02:23:56 11° NE 02:26:17 10° NE visible
07 Jul 9.3 04:20:31 10° NNW 04:29:44 67° NE 04:38:54 10° SE visible
07 Jul 11.9 19:24:33 10° NW 19:26:44 10° NW 19:27:55 10° NNW visible
08 Jul 9.3 03:57:42 10° NNW 04:06:51 61° NE 04:15:57 10° SE visible
08 Jul 11.8 18:59:47 10° WNW 19:03:40 12° NW 19:06:36 10° NNW visible
09 Jul 9.4 03:34:53 10° NNW 03:43:57 56° NE 03:52:58 10° SE visible
09 Jul 11.7 18:35:42 10° WNW 18:40:36 13° NW 18:44:38 10° NNW visible
